Location: Asheville, NC
(35.6000°N, 82.5500°W)
Time: 09:10:27
(UTC-04:00)

STARS - Pass Details

Date: 04 January 2018
Orbit: 624 x 642 km, 98.3° (Epoch: 26 April)

Event Time Altitude Azimuth Distance (km) Brightness Sun altitude
Exits shadow 18:59:45 - 4° (N) 2,929 ? -17.7°
Rises 18:59:46 0° 4° (N) 2,918 ? -17.7°
Reaches altitude 10° 19:02:02 10° 358° (N) 2,009 ? -18.1°
Maximum altitude 19:06:10 43° 287° (WNW) 884 ? -18.9°
Drops below altitude 10° 19:10:19 10° 216° (SW) 2,007 ? -19.8°
Sets 19:12:35 0° 210° (SSW) 2,913 ? -20.2°
